Location: Nag� el Ma?a??a
(24.0667°N, 32.8833°E)
Time: 16:36:21
(UTC+00:00)

Cosmos 1536 - Pass Details

Date: 25 September 2021
Orbit: 539 x 558 km, 82.5° (Epoch: 16 October)

Event Time Altitude Azimuth Distance (km) Brightness Sun altitude
Rises 02:29:40 0° 351° (N) 2,691 6.3 -16.4°
Reaches altitude 10° 02:31:50 10° 349° (N) 1,798 5.4 -15.9°
Maximum altitude 02:35:45 69° 267° (W) 580 2.6 -15.1°
Drops below altitude 10° 02:39:40 10° 183° (S) 1,794 5.3 -14.2°
Sets 02:41:49 0° 181° (S) 2,686 6.3 -13.7°
